User: anonymous   Login
Location: Carri�res
(48.9069°N, 2.1792°E)
Time: 08:51:54
(UTC+00:00)
Language:

H-2A R/B - Orbit

View from above orbital plane
View from above orbital plane
View from above satellite
View from above satellite

Ground track
Ground track

The orbit data is extracted from the following two-line orbital elements,

1 38341U 12025E   21102.46019390  .00000094  00000-0  18558-4 0  9991
2 38341  98.5264 283.4333 0055172 352.8108   7.2307 14.84201726481713
Epoch (UTC): 12 April 2021 11:02:40
Eccentricity: 0.0055172
inclination: 98.5264°
perigee height: 577 km
apogee height: 654 km
right ascension of ascending node: 283.4333°
argument of perigee: 352.8108°
revolutions per day: 14.84201726
mean anomaly at epoch: 7.2307°
orbit number at epoch: 48171

The dashed part of the orbit path shows where the satellite is in the earth's shadow,  

DLR